Location: Amon Carter Post Office
(32.8281°N, 97.0484°W)
Time: 14:56:41
(UTC+00:00)

Meteor 2-15 Rocket - Pass Details

Date: 13 July 2022
Orbit: 939 x 956 km, 82.5° (Epoch: 13 August)

Event Time Altitude Azimuth Distance (km) Brightness Sun altitude
Rises 08:51:45 0° 12° (NNE) 3,632 8.5 -26.2°
Reaches altitude 10° 08:55:07 10° 30° (NNE) 2,680 7.8 -25.8°
Maximum altitude 08:59:16 19° 73° (ENE) 2,113 6.8 -25.3°
Drops below altitude 10° 09:03:22 10° 116° (ESE) 2,662 6.9 -24.8°
Sets 09:06:40 0° 134° (SE) 3,600 7.4 -24.3°
